Location: Newark
(12.4436°N, 0.6167°W)
Time: 03:57:18
(UTC+00:00)

Vanguard 1 - Pass Details

Date: 19 December 2019
Orbit: 650 x 3833 km, 34.2° (Epoch: 26 January)

Event Time Altitude Azimuth Distance (km) Brightness Sun altitude
Rises 11:06:03 0° 291° (WNW) 6,714 14.1 51.8°
Reaches altitude 10° 11:11:58 10° 282° (WNW) 5,128 13.6 52.3°
Maximum altitude 11:22:38 28° 229° (SW) 2,736 13.0 53.0°
Drops below altitude 10° 11:29:19 10° 172° (S) 3,119 13.5 53.4°
Sets 11:31:58 0° 159° (SSE) 3,773 13.6 53.5°
